Home > Weather > Angels Camp > Past weeks

Flag for USA Past Weather in Angels Camp, California, USA — Yesterday and Last 2 Weeks

Now
80 °F

Sunny.


Feels Like: 79 °F
Forecast: 48 / 88 °F
Wind: 15 mph from West

Location: Modesto City-County-Sham Field

Current Time: May 28, 2016 at 11:24:11 AM

Latest Report: May 28, 2016 at 10:53 AM


Visibility: 10 mi

Pressure: 29.82 "Hg

Humidity: 28%

Dew Point: 44 °F

Location of Angels CampLocation

Past Weather in Angels Camp — Graph

°F

Angels Camp Temperature Yesterday

Maximum temperature yesterday: 89 °F (at 3:53 PM)
Minimum temperature yesterday: 57 °F (at 5:53 AM)
Average temperature yesterday: 74 °F

High & Low Weather Summary for the Past Weeks

 TemperatureHumidityPressure
High97 °F (May 18, 3:53 PM)83% (May 21, 3:53 AM)30.10 "Hg (May 21, 3:53 AM)
Low48 °F (May 21, 3:53 AM)14% (May 18, 3:53 PM)29.69 "Hg (May 19, 6:53 PM)
Average69 °F48%29.91 "Hg
* Reported May 13 9:53 AM — May 28 9:53 AM, Angels Camp, Weather by CustomWeather, © 2016

Note: Actual official high and low records may vary slightly from our data, if they occured in-between our weather recording intervals... More about our weather records

Advertising

Angels Camp Weather History for the Previous 24 Hours

Scroll right to see more
 ConditionsComfort  
Time TempWeatherWind HumidityBarometerVisibility
9:53 AM
Sat, May 28
76 °FSunny.13 mph32%29.83 "Hg10 mi
8:53 AM74 °FSunny.12 mph35%29.82 "Hg10 mi
7:53 AM70 °FSunny.15 mph41%29.81 "Hg10 mi
6:53 AM68 °FSunny.15 mph42%29.80 "Hg10 mi
5:53 AM68 °FClear.14 mph45%29.78 "Hg10 mi
4:53 AM67 °FClear.9 mph55%29.77 "Hg10 mi
3:53 AM68 °FClear.8 mph51%29.75 "Hg10 mi
2:53 AM70 °FClear.9 mph49%29.75 "Hg10 mi
1:53 AM69 °FClear.5 mph51%29.77 "Hg10 mi
12:53 AM71 °FClear.5 mph47%29.78 "Hg10 mi
11:53 PM
Fri, May 27
74 °FClear.9 mph41%29.78 "Hg10 mi
10:53 PM76 °FClear.13 mph39%29.79 "Hg10 mi
9:53 PM77 °FClear.10 mph39%29.80 "Hg10 mi
8:53 PM79 °FSunny.7 mph32%29.78 "Hg10 mi
7:53 PM85 °FSunny.10 mph22%29.78 "Hg10 mi
6:53 PM88 °FSunny.13 mph22%29.77 "Hg10 mi
5:53 PM89 °FSunny.14 mph24%29.78 "Hg10 mi
4:53 PM89 °FSunny.15 mph24%29.79 "Hg10 mi
3:53 PM89 °FSunny.13 mph24%29.81 "Hg10 mi
2:53 PM87 °FSunny.13 mph27%29.83 "Hg10 mi
1:53 PM86 °FSunny.9 mph29%29.86 "Hg10 mi
12:53 PM84 °FSunny.8 mph33%29.88 "Hg10 mi
11:53 AM79 °FSunny.8 mph36%29.90 "Hg10 mi
Weather by CustomWeather, © 2016

See weather overviewHow to use our weather pages